Temp
11 11 11 11 11 11 11 10 10 10 10 10 9 9 10 10 9 9 8 8 8 8 7 7 7 7 7 7 7 7 8 8 9 9 9 9 9 9 9 9 9 9 9 9 9 9 9 9 9
11 10 11 11 11 11 10 10 10 10 10 10 10 10 9 9 9 9 8 8 8 8 7 7 7 7 7 7 7 7 7 8 9 9 9 9 9 9 9 8 8 9 9 9 9 9 9 9 9
11 11 11 11 11 11 10 10 11 11 11 10 9 9 9 10 9 9 8 8 6 6 6 7 7 7 6 7 7 7 7 8 9 9 9 9 9 9 8 8 8 8 8 9 9 9 9 9 8
11 11 12 12 11 10 10 10 11 11 10 10 9 9 9 9 9 8 8 7 7 7 6 6 6 6 6 7 6 6 7 8 9 9 9 9 9 9 9 8 8 9 9 9 9 9 9 9 9
11 11 11 11 11 11 11 11 10 11 11 10 10 9 9 8 8 8 8 8 8 8 7 7 7 6 7 7 7 7 7 8 8 9 8 8 8 9 9 9 9 9 9 9 9 9 9 9 9
12 12 11 10 10 11 10 10 11 10 10 10 9 10 9 8 8 8 8 8 8 8 7 7 7 7 8 7 7 7 8 8 8 8 8 8 8 8 8 9 9 9 8 8 9 9 9 9 9
11 12 10 10 10 9 11 10 10 10 10 10 9 10 9 8 8 8 8 8 8 7 7 7 7 8 7 8 8 8 8 8 8 8 8 8 8 8 8 8 8 9 9 9 9 9 9 9 9
11 11 10 10 10 9 10 10 10 10 10 10 9 10 10 8 8 8 8 8 8 8 7 7 7 8 8 8 8 8 8 8 9 8 8 8 8 8 8 8 8 9 9 8 8 9 9 9 9
11 10 9 9 10 8 9 10 9 10 10 9 9 9 10 8 8 8 8 8 8 8 7 7 8 8 8 8 8 8 8 8 8 8 8 8 8 8 8 8 9 9 8 8 8 9 9 9 9
10 10 9 9 9 9 9 9 11 10 10 10 9 9 9 9 8 8 8 8 8 8 8 8 8 8 8 8 8 8 8 8 9 8 8 8 8 8 9 9 9 8 8 8 9 9 9 9 10
10 9 9 9 9 10 9 10 10 10 11 10 10 10 10 9 8 8 7 7 8 8 8 8 8 8 8 8 8 8 8 9 9 9 8 8 8 8 9 8 9 8 8 9 9 9 9 10 10
10 10 9 9 9 9 9 10 9 9 10 10 10 10 10 9 8 8 7 8 8 7 8 8 8 8 9 8 8 8 8 8 8 8 8 9 8 9 9 9 9 9 9 9 9 10 10 11 10
10 10 9 9 9 8 8 9 9 9 10 9 9 9 9 9 8 7 8 8 8 8 8 8 8 8 8 8 8 8 8 8 7 8 8 9 9 9 9 9 9 8 9 9 10 10 11 11 10
10 10 9 9 9 9 9 10 9 9 10 9 9 9 9 8 8 9 8 8 8 8 8 8 8 8 8 8 8 8 9 8 8 8 8 8 9 9 9 9 9 9 10 10 11 11 10 10 10
10 10 9 9 10 9 9 9 9 10 10 10 9 8 9 8 8 8 8 8 8 8 8 8 7 7 7 8 8 8 8 7 8 8 8 9 9 9 9 9 9 9 10 11 11 10 10 10 11
10 9 9 9 10 9 9 9 10 9 9 9 9 9 9 9 9 8 8 8 8 8 8 8 8 7 7 8 8 8 8 8 8 8 8 8 8 9 9 9 9 9 10 10 11 11 11 11 11
11 12 10 9 9 10 10 9 9 9 8 9 9 9 9 9 10 9 9 8 8 8 8 8 8 8 8 8 8 7 8 8 8 9 9 9 9 8 8 9 9 9 10 11 11 11 11 12 11
11 11 11 10 11 10 10 10 11 9 9 9 9 9 9 9 10 9 9 9 8 8 8 9 9 9 8 8 8 8 8 8 8 8 8 8 9 9 8 9 9 10 10 10 11 11 11 11 11
12 12 13 11 11 10 11 10 10 9 9 10 9 9 9 10 9 9 9 9 8 8 9 8 9 9 9 9 8 8 8 8 8 8 9 9 8 8 8 9 9 10 10 10 11 10 11 11 10
13 12 12 12 11 11 11 10 10 10 10 9 10 10 9 9 9 9 9 9 8 8 8 9 8 8 8 8 8 8 8 7 9 8 8 8 8 8 8 8 10 10 9 9 10 10 10 10 9
12 13 13 13 12 11 11 11 11 10 10 9 10 10 9 9 10 10 9 9 9 8 8 9 9 9 8 8 9 9 8 8 9 9 8 8 9 8 8 9 9 9 9 9 9 9 10 10 10
12 14 13 13 13 12 11 11 12 12 11 10 10 10 10 9 10 9 10 10 9 8 8 8 9 9 8 9 9 9 8 8 8 9 9 9 9 9 9 8 9 9 9 9 9 9 10 10 10
14 14 13 12 12 12 12 10 12 12 12 11 10 10 10 9 10 10 10 10 9 8 8 8 9 10 9 9 9 9 9 8 8 9 9 9 9 8 9 9 9 9 9 9 9 9 10 10 10
14 13 12 12 11 10 11 11 12 11 11 11 11 10 10 9 9 10 10 9 9 9 8 9 9 10 9 9 9 9 9 9 9 9 9 9 9 9 9 9 9 9 9 9 9 10 10 10 10
13 13 11 9 8 8 10 10 11 11 11 11 11 11 9 9 9 10 10 10 9 9 9 9 9 10 10 10 9 9 9 9 8 8 9 9 9 9 9 10 9 9 9 10 10 10 11 10 10
13 13 13 11 7 9 10 10 11 11 11 10 10 10 9 9 9 10 10 10 10 10 9 9 9 9 10 10 10 10 9 9 9 9 9 10 10 10 9 10 10 10 10 10 10 10 10 10 10
13 13 12 12 9 9 10 11 11 11 10 10 10 9 8 9 9 9 10 10 10 10 9 10 9 9 10 10 10 10 10 10 9 9 9 10 9 10 10 10 10 10 10 10 10 10 10 10 10
13 12 12 12 7 8 8 9 11 10 10 11 10 10 9 9 9 9 9 10 11 10 10 9 9 9 9 10 10 10 10 9 10 10 10 9 9 9 10 10 10 10 9 9 9 9 10 9 9
12 12 12 11 10 6 6 9 11 11 11 10 9 9 9 9 10 10 10 10 11 10 10 10 9 9 9 9 10 10 10 10 10 10 10 10 9 9 9 9 9 9 9 9 9 10 10 10 10
12 12 11 11 9 9 8 10 10 10 10 9 9 10 9 9 9 9 9 9 10 10 10 10 9 9 9 9 10 11 10 10 10 10 10 10 9 10 10 9 9 9 9 9 10 9 10 10 10
Height
3155 3154 3154 3155 3159 3156 3156 3158 3157 3156 3157 3157 3157 3156 3157 3157 3156 3159 3156 3157 3158 3159 3160 3161 3163 3164 3166 3167 3168 3171 3175 3177 3180 3182 3183 3185 3186 3187 3189 3189 3190 3191 3192 3194 3194 3195 3196 3197 3198
3155 3154 3155 3156 3158 3156 3158 3159 3158 3158 3158 3157 3157 3157 3159 3159 3157 3156 3155 3157 3158 3159 3161 3162 3163 3165 3167 3167 3167 3170 3174 3177 3182 3184 3185 3186 3188 3189 3190 3191 3193 3193 3195 3196 3197 3198 3199 3200 3201
3156 3155 3158 3158 3158 3158 3159 3159 3159 3159 3158 3157 3157 3158 3160 3160 3159 3159 3159 3159 3159 3162 3163 3165 3165 3166 3168 3168 3168 3169 3175 3181 3184 3186 3187 3189 3190 3191 3192 3193 3195 3196 3197 3198 3199 3200 3201 3203 3204
3157 3159 3161 3160 3159 3161 3161 3160 3161 3160 3160 3159 3158 3160 3162 3163 3163 3164 3163 3162 3164 3167 3168 3168 3168 3169 3172 3173 3174 3177 3178 3183 3187 3188 3190 3190 3192 3194 3195 3197 3198 3198 3199 3201 3202 3203 3205 3206 3206
3159 3160 3161 3161 3160 3161 3162 3162 3162 3163 3162 3163 3164 3162 3163 3165 3167 3167 3168 3167 3169 3171 3173 3173 3174 3174 3177 3178 3181 3183 3181 3186 3189 3190 3191 3192 3195 3196 3198 3199 3199 3200 3200 3203 3204 3206 3207 3208 3208
3161 3161 3162 3162 3163 3163 3164 3164 3164 3165 3164 3166 3165 3164 3166 3167 3170 3170 3171 3172 3173 3175 3175 3176 3177 3179 3181 3183 3184 3186 3187 3189 3191 3192 3193 3195 3196 3197 3199 3200 3201 3202 3203 3205 3207 3208 3209 3209 3210
3160 3163 3162 3163 3166 3166 3166 3167 3167 3167 3168 3167 3168 3167 3168 3168 3171 3172 3173 3174 3175 3176 3177 3178 3180 3182 3183 3184 3186 3188 3188 3190 3192 3194 3194 3195 3197 3199 3200 3202 3204 3205 3206 3208 3209 3210 3211 3212 3213
3155 3157 3162 3165 3166 3167 3167 3167 3169 3171 3171 3170 3172 3171 3170 3170 3172 3174 3175 3176 3178 3178 3179 3181 3182 3184 3187 3187 3189 3191 3192 3193 3195 3196 3196 3198 3200 3201 3202 3204 3205 3207 3209 3210 3211 3212 3214 3214 3216
3154 3159 3162 3164 3167 3167 3168 3170 3170 3172 3172 3172 3173 3173 3174 3174 3175 3176 3177 3178 3179 3180 3181 3183 3185 3187 3188 3190 3191 3192 3194 3195 3196 3198 3199 3200 3201 3203 3205 3206 3208 3210 3211 3212 3213 3214 3215 3216 3218
3160 3160 3161 3165 3165 3167 3169 3171 3171 3173 3173 3173 3174 3174 3176 3176 3177 3178 3180 3182 3181 3182 3184 3185 3188 3189 3190 3192 3193 3194 3196 3196 3198 3200 3202 3203 3205 3207 3208 3209 3211 3212 3213 3213 3215 3216 3216 3217 3219
3160 3159 3160 3161 3164 3167 3168 3170 3172 3174 3175 3176 3176 3176 3177 3178 3179 3181 3182 3183 3184 3185 3186 3188 3190 3191 3193 3194 3195 3196 3197 3199 3200 3201 3203 3204 3207 3209 3210 3211 3212 3213 3215 3216 3217 3218 3218 3219 3220
3162 3162 3162 3162 3165 3166 3167 3169 3172 3175 3177 3178 3178 3179 3179 3181 3183 3184 3184 3186 3186 3186 3188 3191 3192 3194 3195 3195 3197 3197 3199 3200 3202 3203 3203 3206 3207 3209 3210 3212 3213 3215 3216 3217 3218 3219 3220 3221 3222
3162 3163 3164 3162 3163 3166 3166 3169 3172 3174 3177 3179 3179 3180 3182 3183 3184 3186 3187 3188 3188 3186 3189 3192 3194 3195 3196 3197 3199 3199 3200 3202 3203 3203 3205 3208 3209 3211 3212 3213 3215 3216 3217 3219 3221 3221 3222 3222 3223
3163 3164 3165 3166 3166 3166 3166 3170 3172 3175 3177 3178 3180 3180 3182 3184 3186 3187 3190 3190 3190 3190 3191 3193 3194 3195 3198 3198 3199 3200 3202 3203 3204 3205 3208 3210 3212 3213 3213 3216 3217 3218 3220 3221 3223 3224 3223 3223 3224
3165 3166 3166 3167 3164 3166 3168 3170 3170 3175 3177 3179 3180 3181 3182 3184 3186 3189 3191 3192 3191 3191 3192 3194 3195 3196 3197 3199 3200 3202 3202 3204 3206 3207 3210 3211 3213 3214 3215 3217 3219 3221 3222 3223 3224 3225 3225 3225 3225
3168 3167 3166 3167 3168 3168 3171 3171 3173 3176 3177 3179 3179 3180 3182 3185 3186 3188 3191 3192 3193 3193 3195 3195 3196 3197 3198 3200 3200 3201 3203 3206 3207 3208 3209 3211 3213 3215 3217 3219 3220 3222 3223 3224 3225 3226 3227 3227 3227
3169 3166 3166 3168 3167 3169 3171 3170 3171 3175 3177 3178 3180 3181 3183 3185 3185 3189 3191 3193 3193 3193 3196 3196 3197 3198 3198 3199 3201 3202 3204 3206 3207 3209 3211 3212 3214 3216 3218 3220 3221 3223 3224 3226 3226 3227 3228 3229 3228
3168 3165 3165 3165 3167 3167 3170 3171 3172 3174 3174 3177 3180 3182 3184 3186 3187 3190 3192 3194 3193 3194 3196 3196 3197 3198 3199 3200 3202 3203 3204 3206 3207 3208 3211 3213 3215 3216 3217 3219 3221 3223 3224 3225 3226 3227 3228 3229 3229
3167 3167 3166 3165 3166 3168 3170 3170 3171 3172 3173 3177 3179 3181 3183 3186 3188 3189 3191 3192 3192 3194 3196 3197 3198 3198 3198 3200 3201 3203 3205 3206 3207 3209 3212 3214 3214 3214 3217 3218 3220 3222 3223 3224 3226 3227 3228 3228 3228
3166 3166 3167 3167 3168 3169 3170 3171 3173 3173 3173 3176 3178 3180 3183 3185 3186 3187 3189 3191 3192 3194 3194 3196 3198 3199 3199 3200 3202 3203 3205 3206 3207 3209 3210 3212 3213 3215 3216 3217 3218 3220 3222 3224 3225 3226 3226 3227 3226
3164 3165 3166 3167 3167 3168 3169 3170 3171 3172 3172 3174 3176 3178 3181 3183 3186 3187 3188 3190 3192 3192 3193 3195 3198 3198 3200 3201 3201 3202 3203 3205 3206 3210 3211 3211 3214 3216 3217 3217 3217 3219 3223 3224 3225 3226 3226 3226 3227
3164 3164 3165 3167 3166 3168 3171 3170 3169 3168 3169 3169 3173 3176 3178 3180 3183 3185 3188 3189 3190 3192 3192 3193 3195 3197 3198 3200 3202 3202 3203 3205 3207 3210 3212 3212 3213 3216 3215 3216 3218 3220 3223 3224 3225 3225 3226 3226 3224
3163 3163 3164 3166 3167 3168 3169 3170 3167 3166 3165 3166 3169 3171 3175 3177 3179 3183 3186 3188 3190 3191 3192 3193 3195 3197 3198 3200 3201 3203 3204 3205 3207 3210 3212 3212 3213 3215 3216 3217 3218 3220 3222 3223 3224 3226 3225 3225 3223
3161 3162 3164 3167 3169 3169 3167 3168 3165 3165 3165 3166 3168 3169 3169 3172 3176 3181 3184 3186 3188 3190 3191 3193 3194 3196 3198 3200 3201 3202 3203 3205 3206 3209 3211 3212 3213 3215 3216 3217 3219 3220 3222 3224 3224 3225 3224 3223 3223
3160 3161 3164 3169 3169 3167 3165 3165 3163 3163 3162 3162 3161 3160 3164 3169 3172 3176 3180 3183 3185 3188 3190 3191 3193 3195 3196 3198 3200 3201 3203 3205 3206 3207 3209 3211 3213 3215 3217 3218 3219 3220 3221 3222 3223 3223 3222 3221 3220
3157 3159 3160 3164 3167 3163 3162 3161 3160 3161 3159 3157 3156 3154 3156 3161 3166 3171 3175 3180 3182 3185 3187 3190 3191 3193 3194 3196 3199 3200 3202 3204 3206 3207 3208 3210 3211 3213 3214 3216 3218 3219 3219 3220 3220 3220 3220 3219 3219
3157 3158 3160 3160 3161 3162 3160 3159 3159 3157 3156 3155 3153 3152 3153 3155 3161 3165 3170 3175 3180 3181 3184 3187 3190 3191 3192 3194 3195 3198 3201 3202 3205 3206 3207 3208 3209 3210 3212 3213 3215 3217 3217 3217 3218 3218 3217 3217 3217
3156 3158 3158 3159 3163 3163 3158 3157 3156 3155 3154 3153 3152 3150 3151 3153 3157 3161 3166 3169 3176 3179 3181 3184 3188 3190 3191 3192 3194 3196 3198 3201 3203 3205 3206 3207 3207 3209 3210 3212 3213 3214 3214 3215 3216 3216 3216 3216 3216
3157 3156 3156 3157 3158 3157 3159 3155 3153 3153 3152 3150 3148 3148 3146 3150 3153 3157 3160 3164 3169 3174 3177 3180 3184 3188 3189 3190 3191 3192 3195 3197 3200 3202 3205 3206 3207 3208 3209 3210 3211 3212 3212 3212 3213 3214 3215 3214 3214
3153 3153 3154 3154 3155 3155 3154 3153 3150 3150 3150 3148 3147 3147 3146 3145 3149 3153 3156 3159 3163 3167 3172 3174 3178 3183 3187 3188 3188 3190 3193 3195 3196 3199 3202 3204 3205 3206 3206 3207 3208 3209 3209 3210 3210 3211 3211 3211 3210
Wind_Speed
4 4 4 5 4 5 9 5 7 6 2 4 8 9 7 2 2 4 5 11 10 11 12 15 15 15 17 21 27 28 22 17 14 14 15 15 15 15 15 15 15 16 15 13 14 13 13 12 12
5 6 5 3 7 12 11 10 5 8 6 2 7 8 5 4 4 1 7 14 16 12 13 14 13 19 16 17 24 26 21 24 17 17 17 17 16 16 16 15 15 15 15 14 14 14 14 14 15
6 7 6 5 6 10 11 9 6 7 12 5 8 10 5 6 12 15 17 19 19 15 14 15 19 17 13 18 19 21 24 20 19 18 18 18 17 17 16 16 15 15 15 15 16 15 17 15 15
7 12 4 5 8 9 11 9 4 11 10 9 13 14 20 20 19 21 26 27 25 23 22 19 21 22 21 22 19 25 27 21 18 18 18 18 17 16 16 15 15 15 16 17 18 17 17 15 17
5 4 2 8 3 11 11 6 5 6 13 14 16 23 21 20 19 22 21 22 20 19 20 20 18 18 20 22 21 21 22 21 21 20 19 18 17 16 16 16 17 17 19 18 18 16 16 15 15
2 4 9 9 17 11 9 6 3 4 13 5 9 19 19 16 15 17 14 15 16 16 18 20 20 18 18 18 17 17 19 19 19 18 17 17 16 16 16 16 17 18 18 18 17 16 15 14 14
9 10 5 12 14 14 6 3 5 6 9 9 13 13 17 17 15 14 14 15 16 16 16 16 17 17 16 17 17 16 16 17 17 17 17 16 16 16 17 18 18 18 17 17 16 15 15 16 18
14 17 9 11 9 8 9 7 5 2 6 9 6 6 14 15 15 10 15 14 14 15 16 15 15 15 14 14 15 15 15 15 16 16 16 16 16 17 18 18 18 17 17 16 15 15 15 16 18
11 14 7 13 9 12 14 14 6 6 2 7 5 9 11 16 11 10 12 12 12 14 15 15 15 14 14 14 14 15 15 16 15 15 15 15 16 17 17 18 18 18 17 17 17 17 17 17 17
4 22 17 14 9 8 14 19 6 9 10 5 10 10 15 12 12 14 14 10 11 13 12 13 13 12 13 13 14 14 15 16 16 15 13 12 14 17 18 18 17 17 16 17 17 17 17 17 18
16 7 17 6 13 7 11 20 11 12 4 2 6 14 15 14 17 13 12 11 14 10 13 12 12 10 11 14 15 15 14 13 14 13 13 12 14 17 19 18 18 15 14 16 16 17 18 19 17
8 6 7 11 11 11 18 23 15 12 5 5 5 8 16 18 18 15 13 11 7 8 16 12 11 9 10 13 14 15 13 12 12 13 12 13 16 18 18 17 17 15 13 14 15 16 19 19 18
5 6 9 7 12 13 19 22 22 16 4 10 3 9 14 18 13 11 9 9 6 10 17 12 11 9 9 10 12 14 15 12 13 13 12 13 16 17 17 16 15 14 14 14 13 13 16 16 15
4 7 9 10 11 16 15 12 19 12 5 10 3 10 10 9 10 5 10 9 8 9 11 9 9 11 10 13 17 14 12 12 16 13 11 11 14 16 16 15 13 12 12 13 12 13 12 12 11
8 8 8 4 3 12 7 14 18 12 5 5 7 10 7 4 6 4 4 8 7 10 4 7 10 8 11 13 17 16 14 16 15 15 13 12 13 15 14 14 13 10 11 12 12 9 10 9 8
7 3 4 5 11 5 5 14 21 18 15 11 10 13 6 3 4 6 4 4 4 1 3 8 10 10 19 14 14 15 16 14 15 15 13 11 15 12 12 13 10 11 13 13 12 10 9 7 5
8 7 8 7 11 9 11 10 20 25 27 19 14 11 3 8 5 6 7 3 3 2 5 6 10 11 20 13 16 17 15 14 13 11 10 11 14 10 12 12 12 11 11 12 13 10 9 7 5
3 6 9 12 12 15 13 12 8 20 24 24 19 12 9 11 4 4 7 3 2 2 3 3 9 12 15 14 16 16 14 10 9 8 9 5 15 9 11 11 12 9 13 14 14 11 8 8 7
13 7 5 12 11 15 10 13 10 17 18 20 21 19 16 11 6 5 6 6 5 4 1 2 6 11 11 12 14 17 15 10 11 10 11 9 12 11 8 12 13 10 13 14 10 9 9 8 7
9 11 8 9 3 8 10 13 17 18 22 21 23 22 22 16 9 8 10 8 6 6 5 4 7 8 10 13 13 16 15 11 11 12 13 14 16 11 15 12 12 16 16 11 10 9 9 8 7
16 11 12 5 7 10 6 10 12 22 23 25 20 25 27 20 12 8 9 2 6 6 4 4 5 5 13 12 12 13 14 14 12 12 13 14 13 11 9 12 12 19 15 11 13 11 11 14 9
17 6 10 11 7 3 7 4 4 13 23 28 29 26 28 26 20 13 10 4 6 6 5 2 3 8 9 11 11 11 12 12 14 13 15 13 11 13 6 9 11 14 20 10 5 8 13 15 10
5 3 8 15 12 3 5 5 4 5 18 26 38 32 23 29 26 18 11 7 6 6 5 3 1 8 10 16 13 10 13 15 13 11 15 15 16 15 16 11 8 10 16 9 10 11 10 10 9
5 7 11 10 12 5 7 7 4 1 3 7 21 29 29 29 32 25 15 13 9 10 9 5 1 5 13 15 12 10 8 13 12 14 16 15 16 17 14 13 11 7 7 11 11 9 9 9 11
5 9 4 1 3 6 4 3 6 5 7 6 14 22 35 34 34 33 25 17 15 12 9 9 5 4 12 14 15 13 14 15 13 12 12 14 13 15 16 14 12 11 11 11 12 11 10 8 9
11 6 3 3 3 2 4 4 4 11 12 10 12 17 30 42 32 33 27 24 15 15 12 8 7 3 8 13 14 13 13 14 13 12 12 12 12 15 16 15 14 13 12 10 10 10 10 9 9
4 4 5 4 3 1 3 8 9 8 11 12 8 13 17 37 34 31 29 27 22 19 15 10 8 6 6 10 14 15 16 16 16 17 14 12 11 10 13 14 14 13 10 7 8 8 8 9 9
7 9 3 4 3 3 4 7 7 7 8 9 10 14 17 22 32 32 33 29 25 26 19 15 11 7 6 10 14 16 16 16 17 16 13 13 12 12 11 12 13 11 8 8 9 8 6 8 9
2 3 3 4 4 6 2 5 8 6 9 16 11 10 8 21 30 35 39 35 32 26 25 23 18 14 12 9 12 15 17 18 19 17 16 15 15 17 15 13 12 12 8 8 7 8 8 8 9
5 6 4 3 5 6 2 7 9 4 8 6 9 11 17 24 24 31 36 38 42 31 26 26 26 22 15 11 12 14 17 21 23 20 18 18 17 18 14 13 11 11 11 10 9 10 10 9 9
Wind_Direction
41 8 114 79 81 92 112 125 112 111 102 182 191 203 223 294 222 261 206 188 189 157 153 165 169 169 168 183 175 164 160 130 130 146 140 133 131 126 126 126 127 124 119 117 112 114 115 115 110
8 32 90 109 125 116 103 122 91 63 80 339 193 214 242 252 288 258 163 148 141 146 147 151 160 169 163 177 186 170 156 145 146 140 135 131 130 130 125 126 123 124 120 117 113 114 113 110 106
65 104 126 115 140 126 141 135 113 53 42 341 228 174 185 111 117 115 114 112 106 119 140 142 144 156 166 170 166 156 132 135 140 137 136 132 129 128 125 121 123 124 122 118 117 116 111 106 96
58 115 180 110 124 136 150 133 74 44 50 58 116 128 119 104 99 112 108 107 109 107 112 119 133 137 131 115 119 129 127 129 132 131 130 129 128 126 124 125 126 125 118 117 115 108 103 104 104
76 145 122 125 114 144 139 90 42 56 59 103 122 126 116 107 107 113 107 108 110 112 116 114 111 120 122 126 130 127 127 140 139 133 130 129 125 125 124 126 126 124 121 116 112 108 104 103 105
323 349 111 95 142 156 129 354 287 74 54 79 162 146 125 114 118 129 121 120 122 124 125 127 130 129 126 127 128 130 134 135 135 133 129 126 129 130 126 125 124 124 118 115 114 112 110 111 114
303 264 149 127 140 166 195 213 179 75 56 76 161 150 135 130 133 128 129 132 129 133 131 128 123 123 128 130 133 136 132 135 138 140 138 132 132 127 125 124 125 121 117 114 115 114 115 116 117
319 201 187 157 170 121 179 140 193 106 72 73 119 152 143 135 138 125 140 138 138 134 130 127 129 131 135 135 138 135 134 134 141 142 142 138 133 132 130 129 124 120 117 118 115 113 113 112 113
30 140 139 148 141 136 141 180 161 207 140 92 110 146 120 122 125 136 137 134 135 133 133 136 138 137 141 148 143 136 136 138 143 145 144 143 138 137 133 125 124 124 127 125 120 116 110 109 113
51 189 211 204 168 161 172 191 210 178 169 139 147 155 127 118 109 113 121 105 127 130 131 134 139 143 149 150 147 145 148 146 145 144 145 140 135 137 132 130 131 132 135 129 126 123 119 118 123
74 149 184 199 180 180 180 183 187 183 134 148 65 151 140 107 110 99 110 121 128 132 140 139 144 149 156 155 159 152 145 144 142 142 141 137 141 138 137 140 136 137 136 132 127 126 125 129 135
134 109 129 199 156 149 148 184 177 199 118 119 85 138 107 118 99 92 95 93 98 162 152 148 145 160 167 161 152 145 147 146 143 144 141 148 146 150 148 144 142 139 146 141 134 137 140 143 140
117 155 155 154 232 151 160 171 189 194 164 163 136 136 127 114 123 112 109 94 97 109 156 149 146 167 175 151 155 154 158 151 165 142 147 154 159 159 155 154 146 156 160 152 145 148 150 147 148
121 151 172 171 151 178 170 168 189 205 164 162 148 152 147 135 126 122 83 66 102 130 165 164 162 173 181 158 151 162 168 156 152 161 158 163 166 163 166 157 157 168 162 157 155 155 166 158 155
94 117 142 144 4 165 114 168 180 172 148 145 174 171 175 179 112 108 112 67 62 121 159 179 169 173 186 167 156 165 165 153 158 169 169 147 158 166 173 165 166 165 161 158 161 165 169 158 158
80 357 180 186 148 189 179 167 167 167 183 182 171 182 178 207 122 142 158 102 42 202 177 195 206 203 196 183 169 163 171 176 173 169 162 158 161 163 184 179 170 178 174 165 174 173 168 174 181
42 256 237 204 194 208 206 173 174 175 194 197 191 193 211 198 206 182 163 253 344 44 182 219 210 187 173 177 170 174 180 172 168 164 161 151 168 180 179 185 182 186 183 185 187 184 192 209 192
239 271 237 228 174 179 204 209 228 192 190 192 199 207 214 215 206 203 189 241 237 247 230 203 206 196 193 189 179 177 160 172 175 179 173 167 169 167 155 188 201 217 205 198 194 196 204 226 234
288 231 132 154 197 194 224 191 177 201 196 206 206 206 229 239 209 217 208 260 251 232 204 118 201 211 199 176 166 171 162 181 191 181 187 176 182 187 187 179 200 210 198 201 196 200 218 240 255
225 232 207 203 177 199 216 211 205 227 225 217 223 214 217 228 214 208 222 255 239 229 270 314 167 200 186 189 199 190 184 193 190 172 173 181 189 180 200 222 227 202 193 204 212 210 222 251 270
219 248 224 243 209 195 220 242 230 219 226 219 222 216 222 232 224 213 205 182 182 180 259 265 215 191 211 198 195 191 191 200 193 167 171 174 180 188 204 224 216 187 198 216 233 241 266 257 259
212 269 248 229 230 205 222 279 280 226 221 224 217 215 227 226 227 224 218 207 190 170 198 218 242 243 233 212 199 201 191 197 194 175 172 184 180 194 221 164 191 211 206 215 229 240 243 256 268
255 208 209 222 218 256 246 249 291 263 229 221 216 234 230 221 229 219 206 193 138 178 173 175 216 221 208 214 202 213 197 189 196 197 185 189 186 177 180 189 172 163 195 221 227 237 232 248 267
204 183 193 218 222 279 258 230 263 126 323 241 236 237 233 221 229 225 215 214 188 175 184 194 214 211 199 212 202 209 208 195 200 198 189 183 191 195 194 199 198 205 199 213 231 243 260 262 267
210 162 140 164 178 212 185 214 258 273 289 259 253 245 224 221 224 228 219 212 208 192 197 203 213 234 206 215 223 221 219 217 211 203 201 183 195 197 202 204 206 222 234 241 246 251 245 246 258
199 227 168 207 197 230 230 231 251 300 311 294 279 247 214 219 217 221 223 212 219 211 199 209 222 254 221 216 223 221 213 205 204 211 208 196 189 193 198 204 217 223 220 224 246 262 269 273 273
189 171 172 150 191 231 226 256 275 288 289 299 281 240 219 216 213 223 222 217 216 206 206 205 231 232 248 225 222 226 224 216 220 223 218 212 203 211 200 196 210 222 227 234 252 260 274 271 273
225 167 167 206 144 261 248 263 249 260 298 321 263 239 238 223 217 218 225 229 223 212 202 211 216 220 244 236 229 226 228 231 227 224 215 214 216 215 213 203 210 218 225 239 247 261 248 260 262
132 223 235 196 195 176 220 242 218 264 294 325 314 248 256 223 217 225 220 228 229 220 219 212 217 230 233 243 231 231 232 233 232 230 217 214 216 223 219 217 231 215 232 243 239 244 251 250 264
9 343 284 210 214 214 216 264 257 293 309 7 349 309 219 205 207 220 224 228 229 228 221 211 221 222 236 241 232 231 231 233 235 233 231 227 225 228 229 225 223 231 231 231 236 245 250 258 272